GREENCUBE (IO-117)

Last updated on Mon Sep 21 2026 00:03:14 GMT+0000 (Coordinated Universal Time)

1 53109U 22080E 26262.49992317 -.00000003 00000+0 00000+0 0 9994 2 53109 70.1205 265.4390 0009216 269.3094 90.6509 6.42583827 98129
UTC large
Height (km)
Speed (km/s)
/
Latitude / Longitude
Inclination (degrees)
Orbital Period (minutes)
Azimuth
Elevation
Range (km)
Doppler Factor

Next 0 passes for location: London (51.5072 / 0.1276)

No passes found over London.
GREENCUBE (IO-117)